Colby, KS

3:35 AM CST on February 11, 2016 (GMT -0600)
Shaltz

Weather History for KCBK - December, 2012

Change the Weather History Date:

Sunday, December 2, 2012

  Actual Average (KGLD) Record (KGLD)
Temperature  
Mean Temperature 52 °F 32 °F  
Max Temperature 68 °F 45 °F 76 °F (1926)
Min Temperature 35 °F 19 °F -10 °F (1919)
Degree Days  
Heating Degree Days 14 33  
Month to date heating degree days 66  
Since 1 July heating degree days 1385  
Cooling Degree Days 0 0  
Month to date cooling degree days 0  
Year to date cooling degree days 941  
Growing Degree Days 2 (Base 50)    
Moisture  
Dew Point 32 °F    
Average Humidity 58    
Maximum Humidity 81    
Minimum Humidity 28    
Precipitation  
Precipitation 0.00 in 0.01 in 0.64 in (1933)
Month to date precipitation 0.03  
Year to date precipitation 19.23  
Snow  
Snow - 0.10 in - ()
Month to date snowfall 0.3  
Since 1 July snowfall 7.5  
Snow Depth -    
Sea Level Pressure  
Sea Level Pressure 29.90 in    
Wind  
Wind Speed 9 mph ()    
Max Wind Speed 26 mph    
Max Gust Speed 33 mph    
Visibility 10.0 miles    
Events      
T = Trace of Precipitation, MM = Missing Value Source: Averaged Metar Reports

Daily Weather History Graph

Daily Weather History Graph

Search for Another Location

Airport or City:

Trip Planner

Search our weather history database for the weather conditions in past years. The results will help you decide how hot, cold, wet, or windy it might be!

Date:

Astronomy

Dec. 02, 2012 Rise Set
Actual Time 7:46 AM CST 5:20 PM CST
Civil Twilight 7:16 AM CST 5:50 PM CST
Nautical Twilight 6:43 AM CST 6:23 PM CST
Astronomical Twilight 6:11 AM CST 6:56 PM CST
Moon 9:09 PM CST (12/2) 10:38 AM CST (12/2)
Length of Visible Light 10h 33m
Length of Day
9h 34m
Waning Gibbous, 85% of the Moon is Illuminated
Dec 2
Waning Gibbous
Dec 6
Last Quarter
Dec 13
New
Dec 19
First Quarter
Dec 28
Full

Hourly Weather History & Observations

Time (CST) Temp. Windchill Dew Point Humidity Pressure Visibility Wind Dir Wind Speed Gust Speed Precip Events Conditions
12:15 AM 39.2 °F 35.0 °F 28.4 °F 65% 30.01 in 10.0 mi SSW 5.8 mph - N/A   Clear
12:35 AM 37.4 °F 32.1 °F 28.4 °F 70% 30.00 in 10.0 mi SW 6.9 mph - N/A   Clear
12:55 AM 37.4 °F 32.8 °F 28.4 °F 70% 30.00 in 10.0 mi WSW 5.8 mph - N/A   Clear
1:15 AM 35.6 °F 30.7 °F 28.4 °F 75% 30.00 in 10.0 mi West 5.8 mph - N/A   Clear
1:35 AM 35.6 °F 30.7 °F 28.4 °F 75% 29.99 in 10.0 mi West 5.8 mph - N/A   Clear
1:55 AM 35.6 °F 29.9 °F 28.4 °F 75% 29.99 in 10.0 mi WSW 6.9 mph - N/A   Clear
2:15 AM 35.6 °F 29.9 °F 28.4 °F 75% 30.00 in 10.0 mi West 6.9 mph - N/A   Clear
2:35 AM 37.4 °F 30.8 °F 30.2 °F 75% 30.00 in 10.0 mi West 9.2 mph - N/A   Clear
2:55 AM 37.4 °F 32.1 °F 30.2 °F 75% 30.01 in 10.0 mi West 6.9 mph - N/A   Clear
3:15 AM 37.4 °F 31.4 °F 30.2 °F 75% 30.01 in 10.0 mi West 8.1 mph - N/A   Clear
3:35 AM 37.4 °F 31.4 °F 30.2 °F 75% 30.00 in 10.0 mi West 8.1 mph - N/A   Clear
3:55 AM 35.6 °F 29.2 °F 28.4 °F 75% 30.01 in 10.0 mi WSW 8.1 mph - N/A   Clear
4:15 AM 35.6 °F 29.9 °F 30.2 °F 81% 30.01 in 10.0 mi West 6.9 mph - N/A   Clear
4:35 AM 37.4 °F 33.8 °F 30.2 °F 75% 30.00 in 10.0 mi West 4.6 mph - N/A   Clear
4:55 AM 37.4 °F 32.8 °F 30.2 °F 75% 30.00 in 10.0 mi WSW 5.8 mph - N/A   Clear
5:15 AM 35.6 °F 28.6 °F 28.4 °F 75% 29.99 in 10.0 mi WSW 9.2 mph - N/A   Clear
5:35 AM 35.6 °F 29.2 °F 28.4 °F 75% 29.99 in 10.0 mi WSW 8.1 mph - N/A   Clear
5:55 AM 37.4 °F 34.9 °F 30.2 °F 75% 29.99 in 10.0 mi SW 3.5 mph - N/A   Clear
6:15 AM 37.4 °F 32.1 °F 30.2 °F 75% 29.99 in 10.0 mi SW 6.9 mph - N/A   Clear
6:35 AM 37.4 °F 33.8 °F 30.2 °F 75% 30.00 in 10.0 mi WSW 4.6 mph - N/A   Clear
6:55 AM 35.6 °F 29.9 °F 30.2 °F 81% 30.00 in 10.0 mi SW 6.9 mph - N/A   Clear
7:15 AM 37.4 °F 32.8 °F 30.2 °F 75% 30.01 in 10.0 mi SW 5.8 mph - N/A   Clear
7:35 AM 35.6 °F 28.6 °F 30.2 °F 81% 30.00 in 10.0 mi SW 9.2 mph - N/A   Clear
7:55 AM 35.6 °F 31.7 °F 30.2 °F 81% 30.02 in 10.0 mi WSW 4.6 mph - N/A   Clear
8:15 AM 37.4 °F 31.4 °F 30.2 °F 75% 30.01 in 10.0 mi SW 8.1 mph - N/A   Clear
8:35 AM 39.2 °F 35.0 °F 32.0 °F 75% 30.01 in 10.0 mi WSW 5.8 mph - N/A   Clear
8:55 AM 41.0 °F 39.0 °F 32.0 °F 70% 30.01 in 10.0 mi SW 3.5 mph - N/A   Clear
9:15 AM 44.6 °F 40.7 °F 32.0 °F 61% 30.01 in 10.0 mi WSW 6.9 mph - N/A   Clear
9:35 AM 48.2 °F - 33.8 °F 58% 30.01 in 10.0 mi South 4.6 mph - N/A   Clear
10:15 AM 60.8 °F - 35.6 °F 39% 30.00 in 10.0 mi SSW 16.1 mph 20.7 mph N/A   Clear
10:35 AM 64.4 °F - 35.6 °F 34% 29.99 in 10.0 mi South 15.0 mph 20.7 mph N/A   Clear
10:55 AM 64.4 °F - 33.8 °F 32% 29.99 in 10.0 mi South 18.4 mph 25.3 mph N/A   Clear
11:15 AM 66.2 °F - 33.8 °F 30% 29.98 in 10.0 mi South 18.4 mph 24.2 mph N/A   Clear
11:55 AM 68.0 °F - 33.8 °F 28% 29.96 in 10.0 mi South 23.0 mph 29.9 mph N/A   Clear
12:15 PM 68.0 °F - 33.8 °F 28% 29.95 in 10.0 mi South 23.0 mph 31.1 mph N/A   Clear
12:55 PM 64.4 °F - 33.8 °F 32% 29.92 in 10.0 mi South 17.3 mph 26.5 mph N/A   Clear
1:15 PM 64.4 °F - 33.8 °F 32% 29.90 in 10.0 mi South 16.1 mph 25.3 mph N/A   Clear
1:35 PM 64.4 °F - 33.8 °F 32% 29.89 in 10.0 mi South 20.7 mph 26.5 mph N/A   Clear
1:55 PM 66.2 °F - 33.8 °F 30% 29.88 in 10.0 mi South 20.7 mph 28.8 mph N/A   Clear
2:15 PM 64.4 °F - 33.8 °F 32% 29.87 in 10.0 mi South 26.5 mph 33.4 mph N/A   Clear
2:35 PM 64.4 °F - 33.8 °F 32% 29.86 in 10.0 mi South 21.9 mph 31.1 mph N/A   Clear
2:55 PM 64.4 °F - 33.8 °F 32% 29.84 in 10.0 mi SSE 20.7 mph 29.9 mph N/A   Clear
3:15 PM 64.4 °F - 33.8 °F 32% 29.84 in 10.0 mi SSE 25.3 mph 32.2 mph N/A   Clear
3:35 PM 64.4 °F - 33.8 °F 32% 29.83 in 10.0 mi South 20.7 mph 32.2 mph N/A   Clear
3:55 PM 64.4 °F - 33.8 °F 32% 29.82 in 10.0 mi South 18.4 mph 26.5 mph N/A   Clear
4:15 PM 64.4 °F - 33.8 °F 32% 29.81 in 10.0 mi SSE 19.6 mph 24.2 mph N/A   Clear
4:55 PM 62.6 °F - 33.8 °F 34% 29.80 in 10.0 mi SSE 17.3 mph 25.3 mph N/A   Clear
5:15 PM 60.8 °F - 32.0 °F 34% 29.79 in 10.0 mi SSE 17.3 mph - N/A   Clear
5:35 PM 59.0 °F - 32.0 °F 36% 29.79 in 10.0 mi SSE 12.7 mph - N/A   Clear
6:15 PM 53.6 °F - 32.0 °F 44% 29.77 in 10.0 mi SSE 11.5 mph - N/A   Clear
6:35 PM 51.8 °F - 32.0 °F 47% 29.76 in 10.0 mi SSE 12.7 mph - N/A   Clear
7:15 PM 48.2 °F - 32.0 °F 54% 29.75 in 10.0 mi SSE 12.7 mph - N/A   Clear
7:35 PM 50.0 °F - 32.0 °F 50% 29.75 in 10.0 mi SSE 12.7 mph - N/A   Clear
7:55 PM 50.0 °F - 32.0 °F 50% 29.75 in 10.0 mi SSE 13.8 mph - N/A   Clear
8:15 PM 46.4 °F 41.5 °F 32.0 °F 57% 29.75 in 10.0 mi SSE 10.4 mph - N/A   Clear
8:35 PM 44.6 °F 41.4 °F 32.0 °F 61% 29.75 in 10.0 mi SE 5.8 mph - N/A   Clear
8:55 PM 41.0 °F 35.8 °F 32.0 °F 70% 29.73 in 10.0 mi SSE 8.1 mph - N/A   Clear
9:15 PM 41.0 °F 35.2 °F 32.0 °F 70% 29.72 in 10.0 mi ESE 9.2 mph - N/A   Clear
10:55 PM 42.8 °F 36.6 °F 33.8 °F 70% 29.66 in 10.0 mi SSE 11.5 mph - N/A   Clear
11:15 PM 41.0 °F 36.4 °F 33.8 °F 76% 29.65 in 10.0 mi SSW 6.9 mph - N/A   Clear
11:35 PM 37.4 °F 32.1 °F 32.0 °F 81% 29.64 in 10.0 mi SSW 6.9 mph - N/A   Clear
11:55 PM 37.4 °F 31.4 °F 32.0 °F 81% 29.64 in 10.0 mi SSW 8.1 mph - N/A   Clear